#timestamp,LO_Frequency,Hit,StdDev 
1516258815.5,286047000.2,N
1516258835.3,286047000.5,N
1516258855.1,286047000.5,N
1516258875.9,286047000.4,N
1516258895.7,286046999.8,N
1516258915.5,286046999.7,N
1516258935.3,286047000.0,N
1516258955.2,286047000.0,N
1516258975.0,286047002.7,Y
1516258975.9,286047002.7,P
1516258995.8,286047002.8,N
1516259015.6,286047002.7,N
1516259035.4,286047002.4,N
1516259055.2,286047002.4,N
1516259075.1,286047000.1,N
1516259076.0,286047000.1,N
1516259095.8,286046999.8,N
1516259115.6,286046999.8,N
1516259135.5,286047002.5,N
1516259155.3,286046999.8,N
1516259175.1,286047002.5,N
1516259195.9,286046999.7,N
1516259215.7,286047002.5,N
1516259235.5,286047002.8,N
1516259255.4,286047002.7,N
1516259275.2,286047002.0,N
1516259295.0,286047001.9,N
1516259295.9,286047001.9,N
1516259315.8,286047001.9,N
1516259335.6,286047002.3,N
1516259355.4,286047001.9,N
1516259375.2,286047001.6,N
1516259395.1,286047002.6,N
1516259396.0,286047002.6,N
1516259415.8,286047002.2,N
1516259435.6,286047002.2,N
1516259455.5,286047001.8,N
1516259475.3,286047002.1,N
1516259495.1,286047002.0,N
1516259515.9,286047002.0,N
1516259535.7,286047004.4,Y
1516259555.5,286047000.4,P
1516259575.4,286047000.3,N
1516259595.2,286047000.0,N
1516259615.0,286046998.2,N
1516259615.9,286046998.2,N
1516259635.8,286047000.9,N
1516259655.6,286046999.9,N
1516259675.4,286047003.2,N
1516259695.3,286047001.3,N
1516259715.1,286047002.6,N
1516259716.0,286047002.6,N
1516259735.8,286047001.8,N
1516259755.6,286047001.7,N
1516259775.5,286047002.1,N
1516259795.3,286047002.3,N
1516259815.1,286047001.9,N
1516259835.9,286047002.6,N
1516259855.7,286047002.3,N
1516259875.5,286047001.9,N
1516259895.4,286047002.6,N
1516259915.2,286047002.5,N
1516259935.0,286047002.6,N
1516259935.9,286047002.6,N
1516259955.8,286047001.6,N
1516259975.6,286047001.6,N
1516259995.4,286047001.6,N
1516260015.3,286047004.4,Y
1516260035.1,286046999.9,P
1516260036.0,286046999.9,N
1516260055.8,286047002.7,P
1516260075.7,286047000.0,N
1516260095.5,286047002.7,N
1516260115.3,286047002.4,N
1516260135.1,286047002.4,N
1516260155.9,286047000.2,N
1516260175.7,286047002.4,N
1516260195.5,286047002.4,N
1516260215.4,286047000.2,N
1516260235.2,286047000.1,N
1516260255.0,286046999.8,N
1516260255.9,286046999.8,N
1516260275.8,286047000.1,N
1516260295.6,286047000.2,N
1516260315.4,286047002.4,N
1516260335.3,286047000.6,N
1516260355.1,286047000.6,N
1516260356.0,286047000.6,N
1516260375.8,286047000.2,N
1516260395.7,286046999.9,N
1516260415.5,286047000.2,N
1516260435.3,286047000.6,N
1516260455.1,286047000.2,N
1516260475.9,286047000.1,N
1516260495.7,286047000.5,N
1516260515.5,286047000.2,N
1516260535.4,286046999.9,N
1516260555.2,286047000.2,N
1516260575.0,286047002.4,N
1516260575.9,286047002.4,N
1516260595.8,286046999.9,N
1516260615.6,286047000.2,N
1516260635.4,286047000.2,N
1516260655.3,286046999.9,N
1516260675.1,286047000.9,N
1516260676.0,286047000.9,N
1516260695.8,286047001.0,N
1516260715.7,286046999.9,N
1516260735.5,286046999.9,N
1516260755.3,286047000.1,N
1516260775.2,286047000.2,N
1516260795.9,286047000.6,N
1516260815.7,286047002.4,Y
1516260835.6,286047000.6,P
1516260855.4,286047001.2,P
1516260875.2,286047000.6,N
1516260895.1,286047001.2,Y
1516260896.0,286047001.2,P
1516260915.8,286047001.2,P
1516260935.6,286046998.2,P
1516260955.5,286046998.5,N
1516260975.3,286046998.6,N
1516260995.1,286046998.9,N
1516261015.8,286046999.0,N
1516261035.7,286047000.7,N
1516261055.5,286046998.5,N
1516261075.3,286046998.6,N
1516261095.2,286046998.3,N
1516261115.9,286046999.0,N
1516261135.7,286046998.6,N
1516261155.6,286046998.3,N
1516261175.4,286046998.6,N
1516261195.2,286046998.3,N
1516261215.1,286046999.3,N
1516261216.0,286046999.3,N
1516261235.8,286046998.7,N
1516261255.6,286046999.1,N
1516261275.4,286046998.8,N
1516261295.3,286046998.8,N
1516261315.1,286046999.2,N
1516261335.8,286046998.6,N
1516261355.7,286046999.3,N
1516261375.5,286046999.4,N
1516261395.3,286046996.6,Y
1516261415.2,286046998.6,P
1516261435.0,286046998.3,P
1516261435.9,286046998.3,P
1516261455.7,286046998.4,Y
1516261475.6,286047000.3,P
1516261495.4,286047000.4,N
1516261515.2,286047000.5,N
1516261535.1,286047000.6,N
1516261536.0,286047000.6,N
1516261555.8,286047000.9,N
1516261575.6,286047000.9,N
1516261595.5,286047000.7,N
1516261615.3,286047000.7,N
1516261635.1,286047000.8,N
1516261655.9,286047001.2,N
1516261675.7,286046998.1,Y
1516261695.5,286046998.4,P
1516261715.4,286046998.8,N
1516261735.2,286046998.8,N
1516261755.0,286046998.9,N
1516261755.9,286046998.9,N
1516261775.8,286046999.3,N
1516261795.6,286046996.5,Y
1516261815.4,286046998.2,P
1516261835.3,286046998.6,P
1516261855.1,286046998.6,P
1516261856.0,286046998.6,Y
1516261875.8,286047000.0,P
1516261895.7,286046999.9,N
1516261915.5,286047001.0,N
1516261935.3,286047000.8,N
1516261955.2,286046999.9,N
1516261975.9,286047002.4,Y
1516261995.7,286047000.3,P
1516262015.6,286047000.5,P
1516262035.4,286047000.6,P
1516262055.2,286047000.9,Y
1516262075.1,286047001.2,P
1516262076.0,286047001.2,N
1516262095.8,286046998.8,P
1516262115.6,286046998.2,N
1516262135.5,286046998.5,N
1516262155.3,286046999.4,N
1516262175.1,286046999.5,N
1516262195.8,286046999.2,N
1516262215.7,286046996.5,Y
1516262235.5,286046999.5,P
1516262255.3,286046997.2,P
1516262275.2,286046997.3,N
1516262295.0,286046996.8,N
1516262295.9,286046996.8,N
1516262315.7,286046997.2,N
1516262335.6,286046997.4,N
1516262355.4,286046997.7,N
1516262375.2,286046997.5,N
1516262395.1,286046997.5,N
1516262396.0,286046997.5,N
